K7RRL-2 Weather Reports


time (UTC)temp
C
wind
direction
speed
KPH
gust
KPH
rain 1hr
cm
rain 24hr
cm
rain mn
cm
humidity
%
barometer
mb
20260507095516 9 0.0 0.0 0.00 0.00 0.00 84 1019.9
20260507094517 9 0.0 0.0 0.00 0.00 0.00 84 1019.9
20260507093516 9 0.0 0.0 0.00 0.00 0.00 83 1019.9
20260507092517 9 0.0 0.0 0.00 0.00 0.00 83 1020.0
20260507091537 10 0.0 0.0 0.00 0.00 0.00 82 1020.0
20260507090537 10 0.0 0.0 0.00 0.00 0.00 81 1020.0
20260507085538 10 0.0 4.8 0.00 0.00 0.00 81 1020.0
20260507084516 10 0.0 0.0 0.00 0.00 0.00 81 1020.1
20260507083517 10 0.0 0.0 0.00 0.00 0.00 81 1020.0
20260507082516 11 0.0 0.0 0.00 0.00 0.00 80 1020.1
20260507081517 11 0.0 0.0 0.00 0.00 0.00 80 1020.0
20260507080538 11 0.0 3.2 0.00 0.00 0.00 81 1020.0
20260507075517 11 0.0 0.0 0.00 0.00 0.00 81 1020.1
20260507074516 11 0.0 0.0 0.00 0.00 0.00 81 1020.1
20260507073516 11 0.0 0.0 0.00 0.00 0.00 81 1020.0
20260507072516 11 0.0 0.0 0.00 0.00 0.00 81 1020.0
20260507071537 11 0.0 0.0 0.00 0.00 0.00 81 1019.9
20260507070517 11 0.0 1.6 0.00 0.00 0.00 81 1019.9
20260507065516 11 0.0 1.6 0.00 0.00 0.00 81 1019.9
20260507064519 11 0.0 3.2 0.00 0.00 0.00 82 1019.9
20260507063519 11 0.0 4.8 0.00 0.00 0.00 82 1019.9
20260507062518 11 0.0 1.6 0.00 0.00 0.00 82 1019.8
20260507061520 11 0.0 3.2 0.00 0.00 0.00 83 1019.9
20260507060518 11 0.0 4.8 0.00 0.00 0.00 83 1019.9
20260507055518 11 0.0 1.6 0.00 0.00 0.00 83 1019.9
20260507054518 12 0.0 1.6 0.00 0.00 0.00 83 1020.0
20260507053519 12 0.0 1.6 0.00 0.00 0.00 82 1019.9
20260507052518 12 0.0 4.8 0.00 0.00 0.00 82 1019.9
20260507051518 12 0.0 1.6 0.00 0.00 0.00 82 1019.9
20260507050518 12 0.0 4.8 0.00 0.00 0.00 81 1019.9
20260507045519 12 0.0 1.6 0.00 0.00 0.00 82 1019.9
20260507044519 12 0.0 1.6 0.00 0.00 0.00 81 1019.8
20260507043518 12 270 1.6 8.0 0.00 0.00 0.00 81 1019.9
20260507042518 12 0.0 4.8 0.00 0.00 0.00 81 1019.9
20260507041518 12 0.0 1.6 0.00 0.00 0.00 81 1019.9
20260507040518 12 0.0 4.8 0.00 0.00 0.00 80 1019.8
20260507035518 12 0.0 0.0 0.00 0.00 0.00 80 1019.6
20260507034558 13 0.0 1.6 0.00 0.00 0.00 80 1019.6
20260507033518 13 0.0 3.2 0.00 0.00 0.00 79 1019.6
20260507032539 13 0.0 0.0 0.00 0.00 0.00 79 1019.4
20260507031518 13 0.0 0.0 0.00 0.00 0.00 79 1019.3
20260507030518 13 0.0 4.8 0.00 0.00 0.00 78 1019.2
20260507025518 13 0.0 3.2 0.00 0.00 0.00 77 1019.2
20260507024518 13 270 1.6 4.8 0.00 0.00 0.00 77 1019.2
20260507023518 13 0.0 4.8 0.00 0.00 0.00 76 1019.1
20260507022518 13 0.0 4.8 0.00 0.00 0.00 76 1019.0
20260507021518 13 0.0 6.4 0.00 0.00 0.00 76 1019.0
20260507020518 14 0.0 1.6 0.00 0.00 0.00 75 1019.1
20260507015518 14 0.0 4.8 0.00 0.00 0.00 75 1019.1
20260507014517 15 0.0 3.2 0.00 0.00 0.00 73 1019.1
20260507013518 15 0.0 3.2 0.00 0.00 0.00 73 1019.0
20260507012517 15 270 1.6 9.7 0.00 0.00 0.00 72 1018.9
20260507011517 15 248 1.6 8.0 0.00 0.00 0.00 70 1019.1
20260507010525 16 270 1.6 8.0 0.00 0.00 0.00 68 1019.0
20260507005518 16 270 1.6 9.7 0.00 0.00 0.00 69 1019.1
20260507004519 16 270 1.6 6.4 0.00 0.00 0.00 73 1019.2
20260507003518 15 293 1.6 9.7 0.00 0.00 0.00 73 1019.1
20260507002518 15 203 1.6 8.0 0.00 0.00 0.00 73 1019.1
20260507001517 15 0.0 1.6 0.00 0.00 0.00 73 1019.2
20260507000518 15 315 1.6 8.0 0.00 0.00 0.00 72 1019.1
20260506235518 15 0.0 3.2 0.00 0.00 0.00 72 1019.1
20260506234518 15 0.0 4.8 0.00 0.00 0.00 71 1019.1
20260506233518 15 270 1.6 4.8 0.00 0.00 0.00 71 1019.1
20260506232518 15 293 1.6 8.0 0.00 0.00 0.00 72 1019.1
20260506231537 15 293 1.6 8.0 0.00 0.00 0.00 70 1019.1
20260506230517 16 270 1.6 8.0 0.00 0.00 0.00 69 1019.3
20260506225518 16 0.0 4.8 0.00 0.00 0.00 71 1019.2
20260506224518 16 293 1.6 6.4 0.00 0.00 0.00 70 1019.2
20260506223518 15 270 1.6 4.8 0.00 0.00 0.00 71 1019.2
20260506222518 15 270 1.6 8.0 0.00 0.00 0.00 71 1019.4
20260506221518 15 0.0 4.8 0.00 0.00 0.00 72 1019.4
20260506220538 15 270 1.6 9.7 0.00 0.00 0.00 72 1019.5
20260506215518 15 0.0 4.8 0.00 0.00 0.00 72 1019.4
20260506214517 15 270 1.6 6.4 0.00 0.00 0.00 73 1019.5
20260506213518 15 270 1.6 8.0 0.00 0.00 0.00 73 1019.5
20260506212537 14 0.0 1.6 0.00 0.00 0.00 77 1019.5
20260506211518 14 293 1.6 6.4 0.00 0.00 0.00 77 1019.6
20260506210518 14 270 1.6 6.4 0.00 0.00 0.00 77 1019.6
20260506205518 14 0.0 3.2 0.00 0.00 0.00 78 1019.6
20260506204518 13 0.0 4.8 0.00 0.00 0.00 79 1019.5
20260506203517 13 113 1.6 6.4 0.00 0.00 0.00 79 1019.5
20260506202517 13 248 1.6 8.0 0.00 0.00 0.00 79 1019.4
20260506201517 13 0.0 4.8 0.00 0.00 0.00 80 1019.3
20260506200539 13 315 1.6 6.4 0.00 0.00 0.00 80 1019.2
20260506195519 13 0.0 1.6 0.00 0.00 0.00 82 1019.3
20260506194518 13 0.0 4.8 0.00 0.00 0.00 83 1019.2
20260506193558 13 270 1.6 9.7 0.00 0.00 0.00 83 1019.4
20260506192518 13 113 1.6 6.4 0.00 0.00 0.00 83 1019.2
20260506191518 13 0.0 3.2 0.00 0.00 0.00 84 1019.3
20260506190518 13 0.0 4.8 0.00 0.00 0.00 85 1019.2
20260506185517 12 270 1.6 8.0 0.00 0.00 0.00 85 1019.3
20260506184518 12 0.0 6.4 0.00 0.00 0.00 85 1019.4
20260506183517 12 0.0 3.2 0.00 0.00 0.00 85 1019.2
20260506182537 12 0.0 3.2 0.00 0.00 0.00 86 1019.0
20260506181517 12 0.0 4.8 0.00 0.00 0.00 86 1019.0
20260506180640 12 0.0 3.2 0.00 0.00 0.00 86 1019.2
20260506175518 12 0.0 4.8 0.00 0.00 0.00 86 1019.1
20260506174517 12 0.0 1.6 0.00 0.00 0.00 86 1019.1
20260506173517 12 0.0 4.8 0.00 0.00 0.00 87 1019.1
20260506172517 12 0.0 3.2 0.00 0.00 0.00 87 1019.1
20260506171517 11 270 1.6 9.7 0.00 0.00 0.00 87 1019.2
20260506170518 11 0.0 4.8 0.00 0.00 0.00 87 1019.1
20260506165518 11 0.0 3.2 0.00 0.00 0.00 87 1019.0
20260506164518 11 0.0 0.0 0.00 0.00 0.00 87 1018.8
20260506163537 11 0.0 4.8 0.00 0.00 0.00 87 1018.8
20260506162517 11 0.0 3.2 0.00 0.00 0.00 87 1018.7
20260506161517 11 0.0 0.0 0.00 0.00 0.00 87 1018.8
20260506160537 11 0.0 0.0 0.00 0.00 0.00 87 1018.8
20260506155517 11 0.0 3.2 0.00 0.00 0.00 87 1018.7
20260506154517 11 0.0 1.6 0.00 0.00 0.00 87 1018.7
20260506153517 11 0.0 1.6 0.00 0.00 0.00 87 1018.7
20260506152517 11 0.0 3.2 0.00 0.00 0.00 87 1018.8
20260506151517 11 0.0 1.6 0.00 0.00 0.00 87 1018.7
20260506150517 11 0.0 4.8 0.00 0.00 0.00 87 1018.9
20260506145517 11 0.0 1.6 0.00 0.00 0.00 87 1018.8
20260506144619 11 0.0 3.2 0.00 0.00 0.00 87 1018.5
20260506143517 11 0.0 0.0 0.00 0.00 0.00 87 1018.2
20260506142518 11 0.0 0.0 0.00 0.00 0.00 87 1018.7
20260506141516 11 0.0 0.0 0.00 0.00 0.00 87 1018.4
20260506140517 11 0.0 1.6 0.00 0.00 0.00 87 1018.5
20260506135517 11 0.0 6.4 0.00 0.00 0.00 87 1018.6
20260506134517 11 0.0 1.6 0.00 0.00 0.00 87 1018.5
20260506133517 11 0.0 4.8 0.00 0.00 0.00 87 1018.3
20260506132517 11 0.0 1.6 0.00 0.00 0.00 87 1018.3
20260506131517 11 0.0 4.8 0.00 0.00 0.00 87 1018.0
20260506130518 11 0.0 1.6 0.00 0.00 0.00 87 1018.0
20260506125516 11 0.0 1.6 0.00 0.00 0.00 87 1018.1
20260506124517 11 0.0 1.6 0.00 0.00 0.00 87 1017.9
20260506123517 11 0.0 0.0 0.00 0.00 0.00 87 1017.9
20260506122516 11 0.0 0.0 0.00 0.00 0.00 86 1017.9
20260506121516 11 0.0 1.6 0.00 0.00 0.00 86 1017.7
20260506120517 11 0.0 0.0 0.00 0.00 0.00 86 1017.5
20260506115517 11 0.0 0.0 0.00 0.00 0.00 86 1017.3
20260506114517 11 0.0 0.0 0.00 0.00 0.00 87 1017.5
20260506113517 11 0.0 0.0 0.00 0.00 0.00 87 1017.6
20260506112516 11 0.0 3.2 0.00 0.00 0.00 87 1017.6
20260506111518 11 0.0 1.6 0.00 0.00 0.00 87 1017.4
20260506110517 11 0.0 0.0 0.00 0.00 0.00 87 1017.5
20260506105538 11 0.0 1.6 0.00 0.00 0.00 87 1017.5
20260506104517 11 0.0 1.6 0.00 0.00 0.00 87 1017.2
20260506103517 11 0.0 0.0 0.00 0.00 0.00 87 1017.1
20260506102517 11 0.0 1.6 0.00 0.00 0.00 87 1017.0
20260506101517 11 0.0 1.6 0.00 0.00 0.00 87 1016.9
20260506100517 11 0.0 1.6 0.00 0.00 0.00 87 1016.7